Вернуться в каталог

BY70-4

АктивенЛюбительское радиоSSO
NORAD 98247·PAYLOAD·🇨🇳 China

Запущен Aug 25, 2026 с Taiyuan Satellite Launch Center

Loading…

Ближайшие Пролёты (ближайшие 24 часа)

TLE

СвежийSource: SatNOGS

Эпоха: Sep 13, 2026, 22:28 UTC

1 98247U 26195E   26256.93647062  .00003471  00000-0  21851-3 0  9996
2 98247  97.5354 330.4116 0011955 197.5286 162.5532 15.09791232  2995

Отслеживайте BY70-4 в реальном времени с AllMySat

Download on the App Store